Skip Page Navigation
NASA JPL Caltech
NASA Logo - Jet Propulsion Laboratory + View the NASA Portal
+ Center for Near-Earth Object Studies
JPL Home Earth Solar System Stars & Galaxies Technology
JPL Solar System Dynamics
BODIES ORBITS EPHEMERIDES TOOLS PHYSICAL DATA DISCOVERY FAQ SITE MAP
IMPORTANT: The SSD Announcement email list is now available. Major changes are coming in the near future, including possible hostname and/or URL changes. To be notified of such changes, subscribe to this email list.

Please visit this page for more details.


JPL Small-Body Database Browser
Search: [ help ]  
351799 (2006 JT45)
Classification: Main-belt Asteroid          SPK-ID: 2351799
Ephemeris | Orbit Diagram | Orbital Elements | Mission Design | Physical Parameters | Discovery Circumstances | Close-Approach Data ]

[ show orbit diagram ]
Orbital Elements at Epoch 2458600.5 (2019-Apr-27.0) TDB
Reference: JPL 10 (heliocentric ecliptic J2000)
 Element Value Uncertainty (1-sigma)   Units 
e .09803516403239315 7.7065e-08  
a 2.668591022488283 3.3054e-08 au
q 2.406975263863273 2.059e-07 au
i 16.9487202802768 8.3584e-06 deg
node 264.8897603080176 2.2848e-05 deg
peri 331.2516007166796 5.1035e-05 deg
M 31.88833988974164 4.6709e-05 deg
tp 2458459.457217385384
(2018-Dec-06.95721739)
0.00020698 TDB
period 1592.287397739264
4.36
2.9584e-05
8.1e-08
d
yr
n .2260898381228975 4.2006e-09 deg/d
Q 2.930206781113294 3.6294e-08 au
  Orbit Determination Parameters
   # obs. used (total)      185  
   data-arc span      6216 days (17.02 yr)  
   first obs. used      2002-08-14  
   last obs. used      2019-08-21  
   planetary ephem.      DE431  
   SB-pert. ephem.      SB431-N16  
   condition code      0  
   norm. resid. RMS      .53754  
   source      ORB  
   producer      Otto Matic  
   solution date      2019-Sep-24 06:37:19  

Additional Information
 Earth MOID = 1.40384 au 
 Jupiter MOID = 2.16258 au 
 T_jup = 3.313 
[ show covariance matrix ]

Ephemeris | Orbit Diagram | Orbital Elements | Mission Design | Physical Parameters | Discovery Circumstances | Close-Approach Data ]

Physical Parameter Table
Parameter Symbol Value Units Sigma Reference Notes
absolute magnitude H 15.7   n/a MPO434219  

351799 (2006 JT45)          Discovered 2006-May-08 by Mt. Lemmon Survey at Mount Lemmon
Reference: 20130127/Numbers.arcLast Updated: 2013-01-31

[ show close-approach data ]
Alternate Designations
 2006 JT45 = 2003 YG173 
Ephemeris | Orbit Diagram | Orbital Elements | Mission Design | Physical Parameters | Discovery Circumstances | Close-Approach Data ]
ABOUT SSD CREDITS/AWARDS PRIVACY/COPYRIGHT GLOSSARY LINKS
FirstGov
(server date/time)  
NASA Home Page
Site Manager:   Ryan S. Park
Webmaster  Alan B. Chamberlin